Hourly Weather Roundup
Issued by NWS Central Illinois

Home | Current Version | Previous Version | Text Only | Print | Product List | Glossary On
Versions: 1 2 3 4 5 6 7 8 9 10 11 12 13 14 15 16 17 18 19 20 21 22 23 24 25 26 27 28 29 30 31 32 33 34 35 36 37 38 39 40 41 42 43 44 45 46 47 48 49 50
000
NZUS43 KILX 020410
HWRILX

AREA WEATHER ROUNDUP
NATIONAL WEATHER SERVICE, LINCOLN IL
1100 PM CDT MON SEP 01 2014


CITY           SKY/WX    TMP DP  RH WIND       PRES   REMARKS
BLOOMINGTON    CLOUDY    71  66  84 SW6       29.92R
CHAMPAIGN      RAIN      71  69  93 SW10      29.94R
DECATUR        LGT RAIN  73  69  87 SW15G23   29.95R
FLORA          CLEAR     73  70  91 SE6       29.90F
GALESBURG      CLOUDY    70  68  93 SW6       29.89S
JACKSONVILLE   CLOUDY    73  71  95 S6        29.90F
LACON          CLOUDY    71  66  83 S3        29.88R
LAWRENCEVILLE  CLOUDY    75  71  87 SW9       29.93S
LITCHFIELD     TSTM      70  68  94 N7        29.93S
$$


CITY           SKY/WX    TMP DP  RH WIND       PRES   REMARKS
LINCOLN        CLOUDY    73  69  86 SW5       29.88R
MACOMB         MOCLDY    71  68  92 SW3       29.92S
MATTOON        LGT RAIN  74  68  81 W9        29.95R
MT CARMEL AP   CLOUDY    79  72  78 SW6       29.93F HX  82
OLNEY-NOBLE AP CLOUDY    73  70  88 CALM      29.91F
PARIS          MIX PCPN  72  68  87 SW5       29.92S
PEORIA         CLOUDY    74  66  76 SW6       29.90R
PONTIAC        CLOUDY    73  70  88 SW6       29.90R
RANTOUL        CLOUDY    73  67  79 SW8       29.92R
ROBINSON       MOCLDY    75  72  92 SW5       29.92F
SPRINGFIELD    LGT RAIN  72  70  93 S12       29.93R
TAYLORVILLE    TSTM      68  68 100 SW5       29.93F
$$

...REGIONAL REPORTS...


CITY           SKY/WX    TMP DP  RH WIND       PRES   REMARKS
CHICAGO O`HARE CLOUDY    72  66  81 SW6       29.85R
KANKAKEE       CLOUDY    69  66  90 SW7       29.89R
MOLINE         CLOUDY    70  66  87 S5        29.88R
MOUNT VERNON   MOCLDY    75  68  78 SE7       29.90F
PITTSFIELD     CLOUDY    71  69  92 CALM      29.91F
QUINCY         MOCLDY    72  69  90 S8        29.90S
ROCKFORD       CLOUDY    69  66  90 W3        29.87R
$$


CITY           SKY/WX    TMP DP  RH WIND       PRES   REMARKS
BURLINGTON     CLOUDY    71  69  93 CALM      29.88S
CEDAR RAPIDS   CLOUDY    67  66  97 CALM      29.85S
DES MOINES     PTCLDY    70  63  78 SW5       29.86S
KIRKSVILLE     PTCLDY    69  66  90 CALM      29.90S
OTTUMWA        MOCLDY    68  65  90 S6        29.86F
ST LOUIS       TSTM      70  66  88 W8        29.97R FOG
$$


CITY           SKY/WX    TMP DP  RH WIND       PRES   REMARKS
TERRE HAUTE    MOCLDY    72  68  87 S3        29.92S
EVANSVILLE     MOCLDY    78  72  81 S5        29.95F HX  80
INDIANAPOLIS   PTCLDY    71  67  87 SW8       29.92R
LAFAYETTE      MOCLDY    68  66  93 CALM      29.89S
MADISON        PTCLDY    67  60  78 CALM      29.84R
MILWAUKEE      PTCLDY    69  64  84 W5        29.83R
$$





USA.gov is the U.S. government's official web portal to all federal, state and local government web resources and services.